| time (UTC) | temp F | wind direction | speed MPH | gust MPH | rain 1hr in | rain 24hr in | rain mn in | humidity % | barometer mb |
| 20260504050328 | 51 | 71 | 0.0 | 0.0 | 0.00 | 0.00 | 0.00 | 82 | 3405.8 |
| 20260504045825 | 51 | 71 | 0.0 | 0.0 | 0.00 | 0.00 | 0.00 | 82 | 3406.2 |
| 20260504045320 | 51 | 71 | 0.0 | 0.0 | 0.00 | 0.00 | 0.00 | 82 | 3405.7 |
| 20260504044817 | 51 | 71 | 0.0 | 0.0 | 0.00 | 0.00 | 0.00 | 82 | 3406.0 |
| 20260504044315 | 51 | 71 | 0.0 | 0.0 | 0.00 | 0.00 | 0.00 | 83 | 3405.8 |
| 20260504043812 | 51 | 71 | 0.0 | 0.0 | 0.00 | 0.00 | 0.00 | 83 | 3405.8 |
| 20260504043309 | 51 | 71 | 0.0 | 0.0 | 0.00 | 0.00 | 0.00 | 83 | 3405.9 |
| 20260504042806 | 51 | 71 | 0.0 | 0.0 | 0.00 | 0.00 | 0.00 | 83 | 3406.3 |
| 20260504042304 | 51 | 71 | 0.0 | 0.0 | 0.00 | 0.00 | 0.00 | 83 | 3406.1 |
| 20260504041759 | 51 | 71 | 0.0 | 0.0 | 0.00 | 0.00 | 0.00 | 83 | 3406.1 |
| 20260504041255 | 51 | 71 | 0.0 | 0.0 | 0.00 | 0.00 | 0.00 | 82 | 3406.3 |
| 20260504040751 | 51 | 71 | 0.0 | 0.0 | 0.00 | 0.00 | 0.00 | 82 | 3406.3 |
| 20260504040249 | 51 | 71 | 0.0 | 0.0 | 0.00 | 0.00 | 0.00 | 81 | 3406.3 |
| 20260504035744 | 51 | 71 | 0.0 | 0.0 | 0.00 | 0.00 | 0.00 | 81 | 3406.5 |
| 20260504035242 | 51 | 71 | 0.0 | 0.0 | 0.00 | 0.00 | 0.00 | 81 | 3406.7 |
| 20260504034739 | 51 | 71 | 0.0 | 0.0 | 0.00 | 0.00 | 0.00 | 81 | 3406.6 |
| 20260504034237 | 51 | 71 | 0.0 | 0.0 | 0.00 | 0.00 | 0.00 | 81 | 3406.7 |
| 20260504033734 | 52 | 71 | 0.0 | 0.0 | 0.00 | 0.00 | 0.00 | 81 | 3406.6 |
| 20260504033231 | 52 | 71 | 0.0 | 0.0 | 0.00 | 0.00 | 0.00 | 81 | 3406.7 |
| 20260504032728 | 52 | 71 | 0.0 | 0.0 | 0.00 | 0.00 | 0.00 | 81 | 3406.7 |
| 20260504032225 | 52 | 71 | 0.0 | 0.0 | 0.00 | 0.00 | 0.00 | 80 | 3406.4 |
| 20260504031722 | 52 | 71 | 0.0 | 0.0 | 0.00 | 0.00 | 0.00 | 80 | 3406.7 |
| 20260504031220 | 52 | 71 | 0.0 | 0.0 | 0.00 | 0.00 | 0.00 | 80 | 3406.6 |
| 20260504030715 | 52 | 71 | 0.0 | 0.0 | 0.00 | 0.00 | 0.00 | 80 | 3406.7 |
| 20260504030213 | 52 | 71 | 0.0 | 0.0 | 0.00 | 0.00 | 0.00 | 80 | 3406.6 |
| 20260504025709 | 52 | 71 | 0.0 | 0.0 | 0.00 | 0.00 | 0.00 | 79 | 3406.7 |
| 20260504025206 | 52 | 71 | 0.0 | 0.0 | 0.00 | 0.00 | 0.00 | 78 | 3406.6 |
| 20260504024703 | 52 | 71 | 0.0 | 0.0 | 0.00 | 0.00 | 0.00 | 78 | 3406.8 |
| 20260504024159 | 53 | 71 | 0.0 | 0.0 | 0.00 | 0.00 | 0.00 | 78 | 3406.9 |
| 20260504023656 | 53 | 71 | 0.0 | 0.0 | 0.00 | 0.00 | 0.00 | 77 | 3406.5 |
| 20260504023152 | 53 | 71 | 0.0 | 0.0 | 0.00 | 0.00 | 0.00 | 77 | 3406.8 |
| 20260504022648 | 53 | 71 | 0.0 | 0.0 | 0.00 | 0.00 | 0.00 | 77 | 3406.8 |
| 20260504022144 | 54 | 71 | 0.0 | 0.0 | 0.00 | 0.00 | 0.00 | 77 | 3406.9 |
| 20260504021642 | 54 | 71 | 0.0 | 0.0 | 0.00 | 0.00 | 0.00 | 77 | 3406.9 |
| 20260504021139 | 55 | 71 | 0.0 | 0.0 | 0.00 | 0.00 | 0.00 | 76 | 3407.1 |
| 20260504020636 | 55 | 71 | 0.0 | 0.0 | 0.00 | 0.00 | 0.00 | 75 | 3407.0 |
| 20260504020132 | 56 | 71 | 0.0 | 0.0 | 0.00 | 0.00 | 0.00 | 74 | 3407.0 |
| 20260504015629 | 56 | 71 | 0.0 | 0.0 | 0.00 | 0.00 | 0.00 | 73 | 3406.8 |
| 20260504015125 | 57 | 71 | 0.0 | 0.0 | 0.00 | 0.00 | 0.00 | 69 | 3407.0 |
| 20260504014621 | 57 | 71 | 0.0 | 0.0 | 0.00 | 0.00 | 0.00 | 67 | 3406.8 |
| 20260504014118 | 57 | 71 | 0.0 | 0.0 | 0.00 | 0.00 | 0.00 | 65 | 3406.5 |
| 20260504013616 | 58 | 71 | 0.0 | 0.0 | 0.00 | 0.00 | 0.00 | 64 | 3406.3 |
| 20260504013113 | 58 | 71 | 0.0 | 0.0 | 0.00 | 0.00 | 0.00 | 64 | 3406.4 |
| 20260504012610 | 58 | 71 | 0.0 | 0.0 | 0.00 | 0.00 | 0.00 | 64 | 3406.5 |
| 20260504012108 | 58 | 71 | 0.0 | 0.0 | 0.00 | 0.00 | 0.00 | 65 | 3406.2 |
| 20260504011604 | 59 | 71 | 0.0 | 0.0 | 0.00 | 0.00 | 0.00 | 63 | 3406.0 |
| 20260504011100 | 59 | 71 | 0.0 | 0.0 | 0.00 | 0.00 | 0.00 | 64 | 3406.0 |
| 20260504010556 | 59 | 71 | 0.0 | 0.0 | 0.00 | 0.00 | 0.00 | 63 | 3406.0 |
| 20260504010052 | 60 | 71 | 0.0 | 0.0 | 0.00 | 0.00 | 0.00 | 60 | 3406.0 |
| 20260504005549 | 60 | 71 | 0.0 | 0.0 | 0.00 | 0.00 | 0.00 | 60 | 3406.0 |
| 20260504005047 | 61 | 71 | 0.0 | 0.0 | 0.00 | 0.00 | 0.00 | 59 | 3406.0 |
| 20260504004544 | 61 | 151 | 0.0 | 0.0 | 0.00 | 0.00 | 0.00 | 59 | 3406.1 |
| 20260504004041 | 61 | 153 | 0.0 | 0.0 | 0.00 | 0.00 | 0.00 | 58 | 3405.9 |
| 20260504003537 | 62 | 153 | 0.0 | 2.0 | 0.00 | 0.00 | 0.00 | 56 | 3406.1 |
| 20260504003034 | 62 | 154 | 0.0 | 0.0 | 0.00 | 0.00 | 0.00 | 57 | 3406.0 |
| 20260504002531 | 62 | 155 | 0.0 | 0.0 | 0.00 | 0.00 | 0.00 | 56 | 3406.2 |
| 20260504002029 | 63 | 155 | 0.0 | 0.0 | 0.00 | 0.00 | 0.00 | 56 | 3406.1 |
| 20260504001526 | 63 | 155 | 0.0 | 2.0 | 0.00 | 0.00 | 0.00 | 55 | 3406.1 |
| 20260504001022 | 64 | 155 | 0.0 | 0.0 | 0.00 | 0.00 | 0.00 | 55 | 3406.1 |
| 20260504000520 | 64 | 155 | 0.0 | 0.0 | 0.00 | 0.00 | 0.00 | 54 | 3406.2 |
| 20260504000017 | 64 | 155 | 0.0 | 0.0 | 0.00 | 0.00 | 0.00 | 52 | 3406.0 |
| 20260503235515 | 65 | 156 | 0.0 | 0.0 | 0.00 | 0.00 | 0.00 | 52 | 3406.2 |
| 20260503235012 | 65 | 104 | 0.0 | 0.0 | 0.00 | 0.00 | 0.00 | 52 | 3406.3 |
| 20260503234509 | 65 | 142 | 2.0 | 3.0 | 0.00 | 0.00 | 0.00 | 51 | 3406.6 |
| 20260503234008 | 66 | 163 | 3.0 | 3.0 | 0.00 | 0.00 | 0.00 | 50 | 3406.5 |
| 20260503233503 | 66 | 102 | 1.0 | 2.0 | 0.00 | 0.00 | 0.00 | 50 | 3406.5 |
| 20260503232959 | 66 | 46 | 1.0 | 3.0 | 0.00 | 0.00 | 0.00 | 50 | 3406.5 |
| 20260503232456 | 66 | 180 | 2.0 | 3.0 | 0.00 | 0.00 | 0.00 | 51 | 3406.4 |
| 20260503231954 | 66 | 102 | 1.0 | 2.0 | 0.00 | 0.00 | 0.00 | 51 | 3406.3 |
| 20260503231452 | 66 | 274 | 4.0 | 5.0 | 0.00 | 0.00 | 0.00 | 50 | 3406.5 |
| 20260503230948 | 67 | 158 | 1.0 | 2.0 | 0.00 | 0.00 | 0.00 | 49 | 3406.7 |
| 20260503230445 | 68 | 82 | 1.0 | 2.0 | 0.00 | 0.00 | 0.00 | 47 | 3406.5 |
| 20260503225942 | 68 | 133 | 0.0 | 2.0 | 0.00 | 0.00 | 0.00 | 47 | 3406.6 |
| 20260503225439 | 69 | 133 | 0.0 | 0.0 | 0.00 | 0.00 | 0.00 | 48 | 3406.8 |
| 20260503224934 | 68 | 245 | 3.0 | 5.0 | 0.00 | 0.00 | 0.00 | 47 | 3406.7 |
| 20260503224432 | 68 | 108 | 3.0 | 3.0 | 0.00 | 0.00 | 0.00 | 46 | 3406.9 |
| 20260503223929 | 69 | 116 | 0.0 | 2.0 | 0.00 | 0.00 | 0.00 | 47 | 3407.2 |
| 20260503223427 | 69 | 207 | 3.0 | 5.0 | 0.00 | 0.00 | 0.00 | 45 | 3407.3 |
| 20260503222922 | 69 | 149 | 0.0 | 2.0 | 0.00 | 0.00 | 0.00 | 47 | 3407.2 |
| 20260503222421 | 69 | 74 | 4.0 | 8.0 | 0.00 | 0.00 | 0.00 | 45 | 3407.3 |
| 20260503221919 | 69 | 208 | 6.0 | 10.0 | 0.00 | 0.00 | 0.00 | 45 | 3407.2 |
| 20260503221417 | 69 | 118 | 1.0 | 2.0 | 0.00 | 0.00 | 0.00 | 45 | 3407.4 |
| 20260503220913 | 69 | 135 | 2.0 | 3.0 | 0.00 | 0.00 | 0.00 | 44 | 3407.5 |
| 20260503220410 | 69 | 6 | 1.0 | 2.0 | 0.00 | 0.00 | 0.00 | 46 | 3407.8 |
| 20260503215907 | 69 | 98 | 1.0 | 2.0 | 0.00 | 0.00 | 0.00 | 45 | 3407.6 |
| 20260503215404 | 69 | 218 | 3.0 | 3.0 | 0.00 | 0.00 | 0.00 | 44 | 3408.1 |
| 20260503214902 | 69 | 165 | 2.0 | 3.0 | 0.00 | 0.00 | 0.00 | 45 | 3408.3 |
| 20260503214359 | 69 | 195 | 1.0 | 2.0 | 0.00 | 0.00 | 0.00 | 47 | 3408.1 |
| 20260503213856 | 68 | 163 | 3.0 | 5.0 | 0.00 | 0.00 | 0.00 | 46 | 3408.3 |
| 20260503213354 | 69 | 89 | 2.0 | 2.0 | 0.00 | 0.00 | 0.00 | 45 | 3408.3 |
| 20260503212850 | 68 | 334 | 5.0 | 7.0 | 0.00 | 0.00 | 0.00 | 44 | 3408.3 |
| 20260503212348 | 69 | 255 | 6.0 | 8.0 | 0.00 | 0.00 | 0.00 | 44 | 3408.5 |
| 20260503211845 | 69 | 147 | 2.0 | 3.0 | 0.00 | 0.00 | 0.00 | 45 | 3408.4 |
| 20260503211342 | 68 | 172 | 0.0 | 0.0 | 0.00 | 0.00 | 0.00 | 48 | 3408.4 |
| 20260503210837 | 67 | 126 | 3.0 | 3.0 | 0.00 | 0.00 | 0.00 | 44 | 3408.7 |
| 20260503210335 | 67 | 217 | 2.0 | 3.0 | 0.00 | 0.00 | 0.00 | 44 | 3408.9 |
| 20260503205829 | 67 | 163 | 3.0 | 3.0 | 0.00 | 0.00 | 0.00 | 48 | 3408.8 |
| 20260503205326 | 67 | 161 | 1.0 | 3.0 | 0.00 | 0.00 | 0.00 | 47 | 3408.8 |
| 20260503204823 | 67 | 301 | 4.0 | 5.0 | 0.00 | 0.00 | 0.00 | 47 | 3409.2 |
| 20260503204320 | 66 | 146 | 1.0 | 2.0 | 0.00 | 0.00 | 0.00 | 49 | 3409.2 |
| 20260503203817 | 67 | 128 | 3.0 | 3.0 | 0.00 | 0.00 | 0.00 | 48 | 3409.1 |
| 20260503203315 | 66 | 118 | 2.0 | 3.0 | 0.00 | 0.00 | 0.00 | 48 | 3409.3 |
| 20260503202812 | 66 | 185 | 4.0 | 7.0 | 0.00 | 0.00 | 0.00 | 46 | 3409.3 |
| 20260503202310 | 67 | 316 | 3.0 | 5.0 | 0.00 | 0.00 | 0.00 | 46 | 3409.2 |
| 20260503201808 | 67 | 65 | 3.0 | 3.0 | 0.00 | 0.00 | 0.00 | 49 | 3409.6 |
| 20260503201304 | 67 | 171 | 4.0 | 10.0 | 0.00 | 0.00 | 0.00 | 45 | 3409.6 |
| 20260503200802 | 66 | 156 | 1.0 | 2.0 | 0.00 | 0.00 | 0.00 | 51 | 3409.6 |
| 20260503200257 | 66 | 106 | 3.0 | 5.0 | 0.00 | 0.00 | 0.00 | 50 | 3409.9 |
| 20260503195755 | 66 | 111 | 2.0 | 3.0 | 0.00 | 0.00 | 0.00 | 50 | 3409.9 |
| 20260503195251 | 66 | 103 | 3.0 | 5.0 | 0.00 | 0.00 | 0.00 | 50 | 3409.9 |
| 20260503194749 | 66 | 77 | 2.0 | 3.0 | 0.00 | 0.00 | 0.00 | 49 | 3410.3 |
| 20260503194244 | 66 | 132 | 2.0 | 3.0 | 0.00 | 0.00 | 0.00 | 48 | 3410.2 |
| 20260503193741 | 66 | 270 | 2.0 | 7.0 | 0.00 | 0.00 | 0.00 | 47 | 3410.7 |
| 20260503193237 | 66 | 248 | 3.0 | 5.0 | 0.00 | 0.00 | 0.00 | 48 | 3410.5 |
| 20260503192733 | 66 | 55 | 1.0 | 2.0 | 0.00 | 0.00 | 0.00 | 48 | 3410.7 |
| 20260503192228 | 66 | 318 | 3.0 | 5.0 | 0.00 | 0.00 | 0.00 | 49 | 3410.8 |
| 20260503191725 | 66 | 252 | 7.0 | 8.0 | 0.00 | 0.00 | 0.00 | 47 | 3410.9 |
| 20260503191222 | 66 | 269 | 2.0 | 3.0 | 0.00 | 0.00 | 0.00 | 50 | 3410.7 |
| 20260503190720 | 66 | 110 | 2.0 | 2.0 | 0.00 | 0.00 | 0.00 | 49 | 3411.1 |
| 20260503190216 | 66 | 124 | 0.0 | 0.0 | 0.00 | 0.00 | 0.00 | 51 | 3411.3 |
| 20260503185713 | 66 | 299 | 3.0 | 7.0 | 0.00 | 0.00 | 0.00 | 48 | 3411.3 |
| 20260503185208 | 66 | 133 | 2.0 | 3.0 | 0.00 | 0.00 | 0.00 | 52 | 3411.5 |
| 20260503184703 | 65 | 321 | 5.0 | 7.0 | 0.00 | 0.00 | 0.00 | 48 | 3411.5 |
| 20260503184159 | 65 | 256 | 3.0 | 3.0 | 0.00 | 0.00 | 0.00 | 51 | 3411.6 |
| 20260503183656 | 65 | 235 | 5.0 | 7.0 | 0.00 | 0.00 | 0.00 | 47 | 3412.0 |
| 20260503183154 | 66 | 167 | 1.0 | 3.0 | 0.00 | 0.00 | 0.00 | 50 | 3412.0 |
| 20260503182652 | 65 | 12 | 5.0 | 7.0 | 0.00 | 0.00 | 0.00 | 50 | 3411.6 |
| 20260503182150 | 64 | 135 | 1.0 | 2.0 | 0.00 | 0.00 | 0.00 | 52 | 3412.0 |
| 20260503181646 | 64 | 139 | 0.0 | 2.0 | 0.00 | 0.00 | 0.00 | 53 | 3412.1 |
| 20260503181143 | 65 | 236 | 3.0 | 3.0 | 0.00 | 0.00 | 0.00 | 52 | 3412.1 |
| 20260503180640 | 64 | 136 | 2.0 | 3.0 | 0.00 | 0.00 | 0.00 | 52 | 3412.1 |
| 20260503180138 | 64 | 72 | 0.0 | 0.0 | 0.00 | 0.00 | 0.00 | 52 | 3412.2 |
| 20260503175635 | 65 | 134 | 3.0 | 5.0 | 0.00 | 0.00 | 0.00 | 52 | 3412.5 |
| 20260503175132 | 65 | 103 | 2.0 | 2.0 | 0.00 | 0.00 | 0.00 | 51 | 3412.2 |
| 20260503174628 | 64 | 287 | 2.0 | 3.0 | 0.00 | 0.00 | 0.00 | 54 | 3412.1 |
| 20260503174126 | 64 | 84 | 0.0 | 2.0 | 0.00 | 0.00 | 0.00 | 52 | 3412.5 |
| 20260503173620 | 63 | 322 | 3.0 | 3.0 | 0.00 | 0.00 | 0.00 | 52 | 3412.5 |
| 20260503173117 | 63 | 163 | 2.0 | 3.0 | 0.00 | 0.00 | 0.00 | 50 | 3412.5 |
| 20260503172614 | 62 | 239 | 1.0 | 2.0 | 0.00 | 0.00 | 0.00 | 52 | 3412.7 |
| 20260503172112 | 62 | 154 | 1.0 | 3.0 | 0.00 | 0.00 | 0.00 | 50 | 3412.7 |
| 20260503171608 | 62 | 87 | 1.0 | 2.0 | 0.00 | 0.00 | 0.00 | 53 | 3413.0 |
| 20260503171105 | 61 | 169 | 2.0 | 3.0 | 0.00 | 0.00 | 0.00 | 51 | 3412.9 |
| 20260503170601 | 61 | 118 | 1.0 | 2.0 | 0.00 | 0.00 | 0.00 | 53 | 3413.0 |
| 20260503150948 | 56 | 134 | 0.0 | 0.0 | 0.00 | 0.00 | 0.00 | 69 | 3413.9 |
| 20260503150445 | 56 | 107 | 0.0 | 0.0 | 0.00 | 0.00 | 0.00 | 71 | 3414.0 |
| 20260503131338 | 45 | 52 | 0.0 | 0.0 | 0.00 | 0.00 | 0.00 | 99 | 3414.0 |
| 20260503130835 | 44 | 53 | 0.0 | 0.0 | 0.00 | 0.00 | 0.00 | 99 | 3413.8 |
| 20260503130333 | 44 | 50 | 0.0 | 0.0 | 0.00 | 0.00 | 0.00 | 99 | 3414.0 |
| 20260503110721 | 35 | 35 | 0.0 | 0.0 | 0.00 | 0.00 | 0.00 | 99 | 3413.3 |
| 20260503110218 | 35 | 35 | 0.0 | 0.0 | 0.00 | 0.00 | 0.00 | 99 | 3413.3 |
| 20260503100138 | 36 | 35 | 0.0 | 0.0 | 0.00 | 0.00 | 0.00 | 99 | 3413.0 |
| 20260503081527 | 37 | 35 | 0.0 | 0.0 | 0.00 | 0.00 | 0.00 | 99 | 3412.9 |
| 20260503081025 | 37 | 35 | 0.0 | 0.0 | 0.00 | 0.00 | 0.00 | 99 | 3413.2 |
| 20260503080520 | 37 | 35 | 0.0 | 0.0 | 0.00 | 0.00 | 0.00 | 99 | 3413.0 |